Wind_Speed
50 50 50 50 51 51 50 49 48 48 47 47 47 48 49 50 52 53 54 55 56 55 55 55 55 54 54 54 54 54 54 53 53 52 51 50 49 48 48 48 48 47 46 45 44 45 46 46 47 47 48 49 49 50 50 51 51 52 53 54 54 55 55 57 58 56 55 56 57 56 56 57 57 55 54 56 59 62 64 64 65 65 66 68 69
52 52 52 52 53 52 50 48 47 47 47 47 47 48 50 51 53 54 55 56 57 57 57 57 57 56 56 56 56 56 55 54 53 52 50 49 48 48 48 48 47 46 45 45 46 47 47 47 47 48 49 50 51 52 52 54 55 55 56 57 57 57 58 59 60 59 58 58 59 60 60 60 57 56 56 57 59 62 64 66 66 66 67 69 72
53 53 53 53 53 52 50 48 47 46 47 47 48 49 51 53 54 55 56 57 58 59 59 59 59 58 58 58 58 57 56 54 53 51 49 48 47 48 47 47 46 44 44 45 45 46 47 47 48 49 50 51 52 53 55 56 57 58 58 59 59 60 61 62 62 63 61 60 62 63 63 63 62 61 60 59 59 61 62 64 65 67 70 73 77
55 55 55 55 54 53 50 48 47 47 48 49 50 51 52 53 55 56 57 58 59 60 61 61 61 60 60 59 59 58 56 54 52 50 48 47 47 47 46 45 45 44 44 44 45 45 46 47 48 50 51 53 53 55 56 57 58 58 59 60 61 62 64 64 65 65 65 63 63 64 65 66 66 65 64 63 62 62 61 63 66 71 74 77 80
57 57 56 56 55 54 51 49 48 49 50 50 51 52 53 54 56 57 58 59 61 62 62 62 62 61 61 60 60 58 56 54 52 50 48 48 47 47 45 45 45 45 44 45 45 46 48 49 50 52 53 54 55 55 56 57 59 60 61 62 63 64 65 66 66 66 66 65 64 66 66 67 68 68 67 67 66 64 63 64 67 69 71 73 75
58 57 57 56 55 54 52 51 50 51 51 51 52 53 54 56 57 59 60 61 62 62 62 62 62 62 61 61 60 58 56 54 52 50 49 48 48 47 46 45 46 46 47 47 49 50 52 53 54 55 56 56 57 57 58 59 60 61 62 64 65 66 67 67 68 68 68 66 65 66 66 67 68 68 69 69 69 67 66 66 66 67 69 70 71
58 58 57 56 54 54 53 52 52 52 53 53 54 55 56 58 59 61 61 62 63 63 63 62 62 61 60 59 58 57 55 54 52 50 50 49 48 47 47 47 48 49 51 52 54 55 56 57 58 59 60 60 60 60 61 62 62 63 64 65 66 67 67 68 69 69 69 68 67 68 68 67 68 69 70 70 71 70 68 67 67 67 70 71 71
59 59 58 57 56 55 54 54 54 54 55 56 56 57 58 59 61 62 62 63 63 62 61 60 59 58 57 56 56 55 54 54 53 52 51 51 50 49 49 51 52 54 55 56 57 59 60 61 62 63 63 63 63 63 64 64 65 65 66 66 67 67 68 68 69 70 70 70 70 70 71 70 69 70 71 71 72 71 70 69 69 69 70 70 70
61 60 59 58 57 56 55 55 56 57 58 59 60 61 61 62 62 62 62 62 61 59 58 56 55 54 54 54 54 54 54 54 54 54 53 53 53 53 54 56 57 58 59 59 60 61 63 65 66 66 66 65 65 65 66 66 67 67 67 68 68 68 69 70 71 72 72 72 72 73 74 73 72 73 73 73 73 72 71 72 72 71 71 71 70
63 62 61 59 58 58 58 58 59 60 61 63 64 64 64 63 63 62 61 59 57 55 54 53 52 52 52 52 52 52 53 54 55 55 55 55 56 57 59 60 61 61 61 62 62 64 66 67 68 68 68 67 67 67 68 68 69 69 69 70 70 70 71 72 73 74 75 75 75 75 76 75 75 76 75 74 74 73 73 73 71 71 72 73 72
64 64 63 62 62 62 62 62 63 63 64 65 65 65 64 62 61 59 57 55 53 52 51 51 51 51 51 50 51 51 52 53 54 55 56 58 59 60 62 63 63 63 64 64 65 67 68 70 70 70 69 68 69 69 70 70 71 71 72 72 73 73 74 75 76 76 78 78 77 78 78 78 78 78 78 77 76 75 75 74 73 72 74 74 75
66 66 66 65 65 64 64 64 64 64 64 64 64 63 61 59 57 55 53 52 51 50 50 50 50 51 51 51 51 51 52 53 54 55 57 59 61 62 63 64 64 65 66 67 68 69 70 71 70 70 70 70 71 71 71 72 73 74 75 75 76 77 78 79 79 80 81 81 81 81 80 80 80 81 81 81 81 80 79 78 78 77 77 77 78
67 67 66 65 64 63 62 62 62 62 62 62 61 59 57 55 53 51 50 50 50 50 50 50 51 52 52 53 53 54 55 57 58 58 59 61 63 64 65 66 66 67 68 69 70 70 71 71 70 70 71 72 73 73 73 73 75 76 78 79 80 81 82 83 84 84 85 85 85 84 83 84 84 84 83 84 84 84 84 83 83 82 81 80 79
66 64 63 62 61 61 61 60 60 60 59 59 57 56 54 53 53 52 51 51 52 52 52 53 54 55 56 56 56 57 59 60 61 62 63 64 66 67 67 68 68 68 68 69 70 71 71 72 72 72 73 73 73 73 74 75 77 79 82 84 85 86 87 88 88 88 88 88 88 87 86 87 88 87 87 87 87 87 87 86 85 84 84 83 83
64 63 62 61 61 60 60 59 59 58 58 57 56 56 55 55 55 55 54 55 55 56 57 58 59 60 60 60 60 60 62 63 64 65 66 67 68 69 69 69 69 68 68 69 71 71 72 73 73 73 73 72 73 74 75 78 81 84 86 87 88 88 88 88 87 87 87 88 88 87 86 87 88 87 87 87 87 88 88 87 86 87 87 87 87
63 63 63 62 62 61 60 59 59 58 58 58 58 58 58 59 59 59 59 60 61 62 63 64 64 64 64 63 63 63 65 67 68 69 70 70 71 71 72 72 71 71 71 71 72 72 73 73 73 72 72 72 74 76 80 84 88 89 88 87 85 84 83 82 82 82 83 84 84 84 83 83 83 82 82 81 81 82 82 82 82 83 83 83 82
63 63 63 64 63 63 62 62 61 61 61 61 61 62 63 63 64 65 65 66 66 67 67 67 67 67 66 66 66 66 68 71 73 74 74 75 75 75 74 74 74 73 73 72 73 73 73 73 73 73 74 76 78 82 86 89 90 88 86 84 82 80 79 78 78 77 78 78 79 79 79 79 80 79 78 77 74 74 75 75 75 76 77 77 77
64 64 65 66 66 66 66 66 66 66 65 65 65 66 67 68 69 70 70 70 71 71 72 71 71 71 70 69 69 69 70 72 75 77 78 79 79 78 77 77 76 75 75 74 73 73 74 75 76 78 79 81 83 86 88 90 88 86 85 84 82 81 79 78 77 76 75 75 74 74 74 75 77 77 76 74 72 71 72 72 71 73 74 74 74
65 66 67 68 68 69 69 69 69 69 69 70 70 71 72 73 74 74 75 75 75 75 75 74 73 73 73 73 73 74 74 75 77 79 80 81 81 81 80 79 78 77 76 75 75 75 77 78 80 81 83 84 86 88 89 90 89 88 87 87 86 84 82 81 80 78 76 74 72 72 72 72 74 75 75 74 73 74 74 73 72 71 72 71 70
66 67 68 69 70 71 72 72 73 74 75 75 76 77 77 78 79 79 79 79 77 76 75 75 74 74 75 77 77 78 78 78 79 81 81 82 82 82 81 80 79 78 78 78 79 80 81 82 83 85 86 87 88 90 92 93 93 92 91 91 90 87 85 84 82 79 76 74 72 71 71 72 73 74 74 74 74 74 75 75 75 74 74 74 71
68 70 71 71 73 74 75 76 77 78 79 80 80 81 82 82 82 82 81 80 79 77 77 77 78 78 79 80 80 81 81 82 82 82 82 82 82 81 81 80 80 81 82 82 83 83 85 86 87 88 89 90 91 93 94 96 96 95 94 94 92 90 87 84 81 78 76 74 72 72 72 73 74 74 74 75 75 75 75 76 75 74 74 75 73
72 72 73 73 74 75 76 78 79 81 82 83 83 83 83 84 84 84 83 82 81 81 81 82 83 82 82 82 83 83 83 83 83 82 82 81 80 81 81 82 84 85 86 86 86 87 89 90 90 91 92 92 93 95 97 98 98 97 96 94 92 90 86 83 80 77 75 73 72 73 73 74 75 76 76 76 76 76 75 75 74 73 73 72 71
76 75 75 76 77 78 79 80 82 83 84 84 85 85 85 85 86 86 86 86 86 86 86 86 87 86 85 85 85 85 85 84 83 82 80 80 80 82 84 86 88 89 90 90 90 92 93 94 94 94 95 95 97 99 100 100 99 98 96 94 92 89 86 82 79 76 74 73 74 74 75 76 77 78 78 78 77 76 74 73 72 72 71 70 68
79 79 79 80 82 83 83 84 85 85 86 87 87 87 88 88 88 89 89 90 90 90 90 90 90 90 89 88 87 86 85 85 83 82 80 81 83 86 88 91 92 94 95 95 95 96 96 96 96 97 98 99 102 103 103 102 100 98 95 92 90 87 84 81 78 76 74 74 75 75 76 77 78 78 78 77 75 72 71 70 70 70 70 69 66
83 84 85 86 87 88 88 88 88 88 89 89 90 90 91 91 91 91 91 92 93 93 93 93 93 93 92 91 90 88 87 87 85 83 83 85 88 91 94 96 97 98 99 100 100 99 97 96 97 98 101 103 104 104 103 101 99 96 92 89 86 84 81 79 77 75 74 74 74 74 74 75 75 75 74 73 71 69 67 67 67 67 67 66 63
86 86 88 89 89 90 90 90 90 90 90 91 91 92 92 93 93 93 93 94 94 95 95 95 95 95 94 94 93 91 90 89 88 86 87 91 93 96 99 100 101 102 103 103 102 101 99 99 100 103 105 104 103 102 101 97 93 89 86 83 81 79 77 75 74 73 72 72 72 72 72 72 72 72 71 70 69 67 65 65 65 64 64 62 60
87 88 88 89 89 90 90 90 91 91 91 92 92 92 93 94 94 94 94 95 96 96 96 96 96 96 95 95 94 93 92 91 91 91 94 96 98 100 102 102 102 103 104 104 104 104 103 104 106 108 107 103 100 97 94 89 85 81 79 77 76 74 73 72 71 71 70 70 70 70 70 69 70 70 69 67 65 63 62 61 60 59 59 59 58
88 88 88 88 88 88 89 90 90 91 91 92 93 93 93 94 95 95 95 96 97 97 97 97 96 96 96 96 95 95 95 94 95 97 100 102 103 105 105 104 103 103 104 105 106 106 107 107 109 108 104 98 93 89 85 81 78 75 73 72 71 70 69 68 68 67 67 68 68 68 68 67 67 67 65 63 61 58 56 55 55 56 56 55 55
86 86 86 87 87 88 88 89 90 91 92 93 93 94 95 96 96 96 95 96 97 97 97 97 97 97 98 98 99 100 100 99 100 104 107 108 110 110 109 108 106 105 106 107 107 108 108 108 107 103 97 91 86 82 79 75 73 70 69 68 67 66 65 65 64 64 65 65 66 66 65 65 64 63 61 58 55 53 52 53 54 54 53 52 50
85 85 86 87 88 89 90 91 92 93 94 95 96 97 97 97 98 98 97 96 96 98 100 100 100 102 103 104 105 107 108 108 109 111 113 115 115 114 112 111 109 109 109 109 109 108 107 105 101 96 90 85 82 78 75 72 69 67 66 65 64 64 63 63 62 62 63 63 63 63 62 61 60 59 57 55 53 52 52 53 51 50 48 46 45
86 87 88 89 90 90 91 92 93 94 96 97 98 99 99 98 98 98 99 100 99 101 103 106 107 109 110 111 112 113 115 116 117 118 118 118 117 115 112 111 110 109 109 109 108 105 102 98 94 90 86 83 80 76 73 71 69 67 65 64 63 63 62 62 61 61 61 61 60 59 58 58 57 56 55 53 52 52 52 50 47 45 44 43 43
90 91 92 93 93 94 95 96 97 98 99 100 101 102 103 103 101 100 101 105 107 108 109 111 113 115 117 118 119 119 120 121 122 121 120 118 115 113 111 109 108 106 105 104 101 98 95 93 90 87 85 83 80 77 74 72 70 68 66 65 64 63 62 61 60 59 59 57 56 55 55 55 54 52 51 50 49 50 51 49 46 44 43 42 43
95 96 97 98 98 99 101 102 104 105 106 107 109 110 111 111 111 109 108 109 113 115 116 117 118 120 121 122 123 124 123 123 123 122 120 117 114 111 108 106 104 101 99 97 95 92 91 89 87 85 84 82 80 77 75 73 71 69 67 65 63 61 59 58 57 56 54 53 52 52 52 52 50 47 44 43 44 46 47 46 44 42 41 41 42
99 100 101 103 104 106 108 109 111 113 114 115 117 118 118 119 120 119 118 117 118 119 120 120 121 122 123 125 126 126 124 123 121 119 116 113 109 106 103 100 97 95 93 91 89 87 86 84 83 81 80 78 76 75 73 71 68 65 63 61 58 56 54 52 51 50 49 49 49 49 48 46 44 40 38 38 40 42 42 41 40 39 38 39 39
103 104 106 107 109 110 112 113 115 116 117 118 118 119 120 121 122 122 123 123 122 122 121 121 122 124 124 123 122 120 118 116 113 110 107 104 101 99 96 94 91 88 87 85 84 83 81 80 78 76 75 73 71 69 67 65 62 59 56 53 50 47 46 45 45 45 45 43 42 41 39 37 35 33 32 33 34 36 36 36 36 36 37 38 39
104 106 108 110 111 112 113 115 116 116 117 118 118 119 120 121 121 122 123 123 123 123 122 121 121 120 117 113 110 108 106 104 102 99 96 94 93 91 90 88 85 84 82 81 79 78 77 75 73 71 70 68 65 62 60 57 54 52 48 45 42 41 42 43 43 42 39 37 35 33 32 31 30 30 30 31 32 33 34 34 35 37 38 39 39
104 105 107 109 110 111 112 113 114 115 115 115 116 116 116 116 116 117 117 117 117 116 115 113 111 109 105 101 99 97 95 94 92 91 89 88 87 85 84 82 80 79 78 76 74 73 71 69 67 64 62 59 56 53 51 48 46 44 42 39 39 40 41 41 40 38 36 35 33 33 33 33 33 33 34 34 35 35 35 36 36 37 38 38 39
101 102 103 104 105 106 107 107 108 108 108 108 108 108 107 107 107 106 106 105 105 104 103 101 100 98 95 93 91 90 88 86 85 84 83 82 81 79 78 76 75 73 71 69 67 65 63 61 58 55 52 49 46 44 41 40 39 39 37 35 37 39 40 39 39 39 38 36 35 35 35 36 36 35 35 35 35 35 35 35 35 36 36 37 37
96 97 98 99 100 100 101 101 101 101 101 101 101 101 100 100 99 99 98 98 97 96 95 94 92 90 89 87 85 83 82 79 78 77 76 75 74 73 71 69 68 66 63 60 58 56 54 51 47 44 42 40 38 36 33 32 32 33 33 33 36 38 39 39 40 40 39 38 38 37 36 36 35 34 33 32 32 32 33 33 34 34 35 36 36
93 93 94 95 95 96 96 96 96 97 97 97 97 97 97 96 96 95 94 93 92 91 90 88 86 84 82 81 79 77 75 73 72 70 69 68 67 65 63 61 59 56 53 50 47 45 42 39 37 36 35 34 33 31 30 30 31 33 35 38 39 40 40 41 41 40 39 38 37 36 35 34 33 32 31 30 30 31 31 32 33 34 35 36 37
90 90 91 92 93 93 94 94 94 94 94 94 94 93 93 92 91 90 89 88 87 85 83 81 79 77 76 74 71 69 67 65 64 62 60 59 58 56 54 51 49 46 42 39 37 35 34 33 33 33 32 32 31 31 31 33 35 37 39 40 40 40 40 40 39 38 36 34 33 33 32 32 31 30 29 29 30 30 31 33 34 35 37 38 39
88 88 89 90 91 91 91 91 91 91 90 89 89 88 87 85 84 83 81 81 80 79 76 74 72 70 68 65 62 60 57 56 54 52 50 48 46 45 44 42 39 36 33 31 30 31 31 31 32 32 31 30 30 30 32 34 36 38 39 39 39 38 38 37 35 33 31 31 31 31 31 30 29 29 30 30 31 32 33 35 36 37 38 38 39
86 86 87 87 88 88 88 88 87 86 85 84 83 82 80 79 77 75 74 73 73 71 69 67 64 61 59 56 53 50 48 47 45 43 40 37 35 34 33 32 30 29 28 28 28 29 29 29 29 29 29 28 29 30 32 34 35 36 36 36 36 35 34 33 31 30 30 30 30 30 30 29 29 30 31 32 33 34 34 35 36 36 37 37 38
84 84 85 85 85 85 84 84 83 82 80 78 77 75 73 71 69 67 66 65 65 64 62 59 55 52 49 46 44 42 41 39 37 35 33 31 28 27 26 26 26 26 27 28 28 28 28 28 28 27 28 28 30 31 33 34 35 35 34 34 33 32 31 30 30 29 29 29 30 30 30 30 30 30 31 32 32 33 34 34 35 35 36 37 38
82 82 82 82 81 80 79 78 77 76 74 72 70 68 66 64 62 60 59 58 57 56 53 50 47 43 41 39 38 37 35 33 32 30 29 27 25 24 25 26 27 27 28 28 28 28 28 28 28 28 29 31 32 33 34 35 34 34 33 32 31 31 30 30 30 30 30 30 30 30 30 30 30 30 31 31 32 33 33 34 35 36 37 38 39
80 79 79 77 76 75 74 72 71 69 67 65 63 61 59 58 56 55 53 52 50 48 45 42 40 38 36 35 35 33 31 30 29 29 28 27 26 26 27 28 28 27 27 28 28 28 29 29 30 31 32 33 33 34 34 33 33 32 31 31 31 31 30 30 30 29 29 29 29 30 30 30 30 31 31 32 32 33 34 35 36 38 39 40 42
77 76 74 73 71 69 67 66 64 63 61 60 58 56 55 53 51 50 48 47 45 43 40 38 36 34 33 32 31 30 29 29 30 30 30 30 30 31 32 31 30 29 28 28 28 28 29 30 30 31 32 32 33 33 32 31 31 30 30 30 30 30 29 29 28 28 28 29 29 30 30 31 31 32 33 34 35 36 37 38 39 40 42 43 44
72 71 69 67 65 63 62 60 59 58 57 55 54 52 51 49 47 45 43 42 41 40 38 36 34 33 31 30 29 29 29 30 31 32 32 33 34 34 34 34 33 31 30 29 28 28 29 29 30 30 31 30 30 30 29 29 29 29 29 29 28 28 28 28 28 28 29 30 30 31 31 32 33 34 35 36 37 38 39 40 41 43 44 46 47
67 65 63 62 60 59 57 56 55 54 53 51 50 48 46 45 43 41 39 38 37 36 35 33 32 32 32 31 31 31 32 32 33 34 35 35 36 36 35 34 33 32 31 30 29 29 29 29 29 29 29 29 28 28 28 28 29 28 28 28 28 29 29 29 29 29 30 30 31 32 33 34 35 36 37 38 39 40 41 43 44 45 47 48 49
62 61 59 58 57 55 54 52 51 50 48 46 44 43 41 40 39 38 37 36 34 33 32 31 31 31 32 33 34 34 35 35 36 37 37 38 39 39 37 35 33 31 31 31 30 30 29 29 29 29 29 29 29 29 29 29 29 29 29 30 30 30 30 30 31 31 32 32 33 34 35 36 37 38 40 41 42 43 44 46 47 48 50 51 52
59 57 56 55 54 52 50 49 47 45 43 42 40 39 38 37 37 37 36 34 32 31 30 30 30 31 32 34 35 36 37 37 38 39 39 40 41 40 38 35 33 31 30 30 30 31 31 31 30 30 30 30 30 30 30 30 30 31 31 31 32 32 32 33 33 34 34 35 36 37 38 39 40 42 43 44 45 46 48 49 50 51 53 54 55
Wind_Direction
283 284 284 284 284 284 285 285 285 285 284 284 284 284 284 285 286 287 287 287 287 287 287 287 286 286 286 287 287 287 287 287 286 286 286 286 286 286 287 288 289 289 290 291 291 291 291 293 295 297 297 298 298 298 298 298 299 299 299 300 300 300 300 300 300 300 299 299 298 297 296 296 296 294 292 291 290 290 291 291 289 289 290 290 291
283 283 284 283 284 284 284 284 284 284 283 282 282 283 283 284 284 284 284 284 285 285 285 285 286 286 287 287 288 288 287 287 286 286 286 286 286 286 286 286 286 286 286 288 289 290 291 292 295 296 297 297 298 298 298 298 298 298 299 299 300 300 300 299 299 298 298 298 297 297 296 296 296 293 291 291 289 289 290 291 291 291 291 289 288
282 283 283 284 284 285 285 284 283 283 282 281 281 281 281 282 282 283 283 283 283 284 284 284 285 285 287 287 288 288 287 286 285 285 285 285 285 285 284 284 284 284 285 286 288 290 291 293 295 296 297 297 298 298 298 298 298 299 299 299 300 300 299 299 299 298 297 296 296 296 296 296 295 294 293 291 290 290 290 291 293 292 289 287 285
283 283 284 285 285 286 286 285 283 282 282 282 281 280 280 280 281 281 281 282 282 282 283 283 284 285 287 287 287 287 286 285 283 283 283 282 281 281 281 283 284 284 285 286 288 290 292 294 295 296 296 297 298 298 298 298 298 299 299 299 299 299 299 298 298 297 296 296 295 295 295 295 295 296 296 294 292 291 290 291 291 288 286 285 285
283 284 285 285 286 286 286 284 283 282 282 281 280 279 279 279 280 280 280 280 281 281 282 283 285 286 286 286 286 285 284 283 282 281 281 279 279 278 279 281 283 284 285 287 288 290 292 293 294 295 296 297 298 298 298 298 298 299 299 299 298 298 297 297 297 296 296 296 295 295 294 294 294 295 295 294 293 292 290 290 289 287 286 286 286
283 284 285 285 286 286 286 284 283 282 280 279 278 278 278 279 279 280 280 280 281 282 283 284 285 285 285 284 283 283 282 281 280 280 279 277 276 277 278 280 282 284 286 287 288 290 291 293 294 295 296 296 298 298 298 298 298 298 298 298 298 297 297 297 297 296 296 296 295 294 293 293 293 293 293 293 292 291 290 289 288 288 288 288 287
284 285 285 286 286 286 285 284 283 281 280 279 279 279 279 280 280 281 282 282 282 283 284 285 285 284 284 283 282 281 280 280 279 278 277 275 274 275 277 280 283 285 287 288 289 290 291 293 294 296 296 297 297 298 298 298 297 298 298 298 297 297 297 296 296 296 295 295 294 293 292 291 291 291 291 291 290 290 289 289 288 289 289 289 288
284 285 285 285 285 285 285 284 283 282 282 281 281 281 281 282 282 283 284 284 284 284 285 284 284 283 282 281 280 279 279 278 278 277 275 273 272 273 277 281 284 286 287 289 289 290 291 293 294 296 296 297 297 297 297 297 296 297 297 297 297 296 296 295 295 294 294 293 293 292 291 290 290 289 289 289 289 289 288 287 286 286 287 289 290
286 286 286 286 286 285 285 284 284 284 284 283 283 284 284 284 285 285 285 285 285 284 284 283 283 282 281 280 280 279 278 278 278 277 275 272 272 273 278 282 284 286 287 288 289 289 291 292 294 295 295 296 296 296 296 295 295 296 296 296 296 295 295 294 294 293 293 292 292 290 289 289 289 288 287 287 288 287 286 285 286 286 287 287 288
288 288 287 287 287 287 286 285 285 285 285 285 285 286 286 287 287 286 286 285 284 284 283 282 282 281 281 280 280 280 279 278 277 276 274 272 272 274 278 282 284 285 286 287 287 288 290 291 293 294 294 294 294 294 294 294 294 294 295 295 295 295 294 293 293 292 291 291 290 289 288 288 287 287 287 286 286 286 286 286 286 287 286 286 287
287 287 287 288 288 287 287 286 286 286 286 286 286 287 287 287 286 285 285 284 283 283 282 282 282 281 281 280 280 280 280 279 278 276 274 273 274 276 279 282 284 285 285 286 286 287 289 290 291 292 292 292 292 293 293 293 293 294 295 295 295 294 293 293 292 291 290 290 289 288 287 287 286 286 285 285 284 284 284 284 284 285 285 287 288
286 286 287 287 287 287 287 286 286 286 286 286 286 286 286 285 284 284 283 283 282 282 282 282 282 282 281 281 280 280 280 279 279 278 277 276 277 278 280 281 283 284 284 285 286 287 288 289 290 290 291 291 291 292 292 292 293 294 295 295 295 294 293 292 292 291 290 289 288 287 287 286 285 284 284 283 283 282 282 282 283 284 285 286 286
285 286 286 287 287 286 286 286 286 285 285 284 284 284 283 283 282 282 282 282 282 282 282 283 283 283 283 281 280 280 280 280 279 279 279 279 279 280 281 282 283 283 284 285 286 287 288 288 289 290 290 290 291 291 291 292 293 294 295 295 295 294 293 292 292 291 289 288 288 288 287 286 285 284 283 283 282 282 282 283 284 284 284 284 284
285 285 286 286 286 286 285 285 284 284 284 283 283 282 281 281 281 281 282 282 283 283 283 283 283 284 283 282 280 279 279 279 279 279 279 280 280 281 282 282 283 284 285 286 287 288 288 289 289 289 290 290 290 291 292 293 294 294 295 294 294 293 293 292 291 290 289 288 288 288 287 286 285 284 283 282 282 282 282 283 283 284 283 283 283
285 285 285 285 285 284 284 284 283 283 283 283 282 281 280 280 280 281 282 282 282 283 283 283 283 283 282 281 279 278 277 277 278 279 280 281 282 282 283 284 284 285 286 287 288 288 288 288 289 289 290 291 291 292 292 292 293 293 293 293 292 292 291 291 291 289 288 288 287 287 286 285 284 284 283 283 282 282 282 282 282 282 282 282 283
284 284 284 284 284 284 283 283 283 283 283 282 282 281 280 280 281 281 282 282 283 283 283 283 282 282 282 281 279 277 277 277 278 280 281 282 283 284 284 284 284 285 286 287 287 288 289 289 290 290 290 290 290 290 290 291 292 293 292 292 291 291 291 291 290 289 288 287 286 286 286 285 285 285 284 284 284 285 284 283 283 282 282 281 281
283 283 284 284 284 284 283 283 283 283 283 283 283 282 282 282 282 282 282 283 283 284 283 283 282 282 282 282 281 280 279 279 280 280 281 282 283 284 284 284 284 285 286 288 289 290 291 291 290 290 290 289 289 290 291 293 294 294 293 293 293 293 293 292 291 290 289 288 287 286 285 285 285 285 285 286 286 286 285 285 285 284 283 282 281
283 283 284 284 284 284 284 284 284 284 284 284 284 284 284 283 283 283 284 284 284 284 284 284 284 283 283 283 283 283 282 281 281 281 281 282 283 284 284 285 286 287 288 289 291 292 292 291 290 290 290 289 290 291 294 296 297 297 297 297 297 297 297 296 294 292 291 290 288 287 285 284 284 285 285 285 285 283 282 282 283 283 283 283 282
283 283 283 284 284 284 284 284 284 284 284 284 285 285 285 285 285 285 286 286 286 286 286 286 286 286 285 285 285 286 285 284 283 283 283 283 284 285 286 287 288 288 288 290 291 292 293 292 291 291 291 292 293 295 298 300 301 301 301 301 300 300 299 297 295 295 293 291 290 288 286 284 283 283 284 283 283 282 281 281 281 282 283 284 284
283 283 283 283 284 284 284 284 284 284 284 284 285 286 286 286 286 287 287 287 288 287 287 287 287 287 287 287 287 287 286 286 285 285 285 285 285 286 287 288 288 289 289 291 292 293 294 294 293 294 294 296 297 299 302 303 303 302 302 301 300 299 298 296 296 295 293 291 290 288 286 284 283 282 283 283 282 282 282 281 281 282 282 283 284
283 283 283 284 284 284 285 285 285 285 285 286 286 286 287 287 287 287 287 288 288 287 287 287 287 287 287 287 287 287 287 286 286 286 286 286 286 286 288 289 290 290 291 292 293 294 295 295 296 296 297 298 299 301 302 302 302 301 300 300 299 298 297 296 295 294 292 290 289 287 285 284 283 282 282 282 282 282 282 282 281 281 281 281 281
284 284 284 284 285 285 286 286 286 286 286 286 286 287 287 287 287 287 287 287 287 286 286 287 287 288 288 288 288 287 287 287 287 287 287 287 287 289 290 291 291 291 292 293 294 294 295 296 296 297 297 297 298 299 300 300 300 300 299 298 297 296 295 294 293 291 290 288 286 284 283 283 282 282 282 282 283 283 283 281 281 280 280 280 281
286 285 285 285 285 286 286 286 286 286 286 286 286 286 287 287 287 287 287 287 287 287 287 288 288 289 289 289 288 288 288 288 288 288 288 288 289 291 292 292 292 292 293 293 294 294 295 295 296 296 296 296 296 297 298 298 298 298 297 296 295 294 293 292 291 289 286 284 282 282 281 281 281 281 282 283 284 284 283 281 280 279 279 280 281
286 286 286 286 286 286 287 287 286 286 286 286 286 286 286 286 287 287 287 288 288 288 288 288 288 289 289 289 288 288 288 288 288 288 288 289 290 292 292 292 292 293 293 293 293 293 293 294 294 295 294 294 295 295 296 297 297 296 294 293 292 291 290 289 288 286 284 282 281 280 280 280 281 281 282 283 284 284 283 281 280 278 279 280 280
286 286 287 287 287 287 287 287 287 287 286 286 287 287 287 287 287 287 287 287 287 287 287 287 288 288 288 288 288 287 287 288 288 287 288 289 291 291 292 293 292 292 292 292 292 291 292 293 294 295 295 294 294 295 295 296 295 294 293 291 290 289 288 287 286 284 283 282 282 281 281 281 281 282 282 283 283 283 282 281 279 278 278 279 279
285 286 286 286 286 286 286 287 286 286 286 286 286 286 286 286 286 286 285 285 285 285 285 285 286 286 286 286 286 286 286 286 286 286 286 288 288 290 292 292 292 291 291 291 290 290 291 293 295 298 298 296 294 294 295 294 293 292 291 290 289 288 287 286 285 284 283 283 282 282 281 281 282 282 282 282 283 283 282 280 278 277 278 279 279
284 284 284 284 284 285 285 285 285 285 284 284 284 283 283 283 283 283 283 282 282 282 283 283 283 283 283 283 283 283 283 284 284 285 286 287 288 290 292 293 291 290 290 290 290 290 291 293 296 299 299 296 294 294 294 293 292 291 290 289 288 287 286 285 284 284 283 283 282 282 282 282 282 282 282 283 283 283 281 279 278 278 278 278 276
283 284 284 284 283 283 283 283 283 282 282 282 281 281 280 280 279 280 280 280 280 280 280 281 281 281 281 282 282 283 283 284 285 287 288 289 290 292 293 293 292 291 290 290 290 290 291 293 296 298 297 295 294 294 293 292 291 290 289 288 288 287 286 285 285 284 284 283 283 283 282 282 281 281 282 283 283 281 279 279 278 277 276 274 271
283 283 282 282 281 281 280 280 279 279 279 279 278 278 277 277 277 277 278 278 279 279 279 279 280 281 281 282 283 284 284 285 286 288 290 291 292 293 293 293 292 292 292 292 292 292 293 294 296 296 294 293 293 292 292 291 290 289 288 288 287 286 286 286 285 284 283 283 283 282 282 281 281 281 282 283 282 279 278 277 276 275 272 270 268
279 279 278 277 277 277 276 276 276 276 276 276 276 275 275 275 275 276 276 276 277 279 281 281 282 283 284 284 285 286 287 288 289 290 292 293 294 294 294 294 294 293 293 293 293 293 293 294 294 293 292 291 291 291 290 290 289 288 287 286 286 286 285 285 285 284 283 283 282 282 281 281 281 282 283 282 278 276 275 275 273 271 269 268 267
274 274 273 273 273 273 273 273 273 273 273 273 274 274 273 273 273 275 277 278 278 280 283 285 286 287 287 288 288 289 290 291 292 293 294 294 295 295 295 295 294 294 293 292 292 292 292 292 291 291 290 290 290 289 289 289 288 287 287 286 285 285 285 285 284 283 283 282 282 281 281 281 282 283 281 276 274 275 275 272 269 268 267 268 268
272 272 271 271 271 272 272 273 274 274 274 275 275 275 275 274 273 273 276 279 282 283 285 286 288 289 290 291 291 291 292 293 294 294 294 294 294 294 294 293 293 292 291 291 291 291 291 290 290 289 289 288 288 288 288 288 287 287 286 286 286 285 285 284 283 282 281 281 281 280 281 281 281 280 276 271 273 275 273 268 265 266 267 268 269
272 272 272 272 273 273 274 275 275 276 277 278 278 279 279 279 278 276 276 278 281 284 286 287 288 289 290 291 292 293 293 293 293 293 293 293 292 292 292 291 291 291 290 290 290 290 290 289 289 288 288 288 288 288 288 288 287 287 287 286 286 285 283 282 281 280 280 280 279 279 278 278 277 276 274 273 275 274 270 266 265 266 267 268 269
274 274 274 275 275 275 276 276 277 277 278 279 280 280 281 281 282 281 280 280 280 282 284 286 288 289 290 291 292 292 292 292 292 291 291 291 291 290 290 290 290 290 290 290 289 289 289 289 288 288 288 288 288 288 288 288 288 287 286 285 284 282 281 279 279 278 278 277 276 274 273 272 273 273 274 275 274 272 269 267 267 267 267 268 267
276 277 277 277 277 277 278 278 278 279 279 280 280 281 281 282 283 283 283 283 283 283 283 284 286 287 288 289 289 290 290 290 289 289 289 289 289 289 289 290 290 290 289 289 289 289 289 288 288 288 288 288 288 288 288 288 287 286 284 282 280 278 277 276 276 275 274 272 270 269 268 269 269 270 272 273 272 271 270 270 269 268 268 267 265
278 278 279 279 279 279 280 280 280 280 281 281 281 282 282 283 283 284 284 284 285 285 285 285 285 286 287 288 288 288 288 289 289 289 289 289 289 289 289 289 289 289 288 288 288 288 288 288 288 288 288 288 288 287 287 286 284 282 278 275 273 272 271 271 271 271 270 270 270 271 272 273 273 273 273 273 272 272 272 270 269 268 266 264 263
280 280 280 280 280 281 281 281 282 282 282 283 283 283 283 284 284 285 285 285 286 286 286 286 287 287 288 289 289 289 289 289 289 289 289 289 289 289 289 288 288 288 288 288 288 288 288 287 287 287 286 286 286 284 283 280 277 273 269 267 267 267 267 268 270 270 271 272 274 277 278 279 278 277 275 274 274 272 270 268 266 264 263 262 262
281 282 282 282 282 282 283 283 284 284 285 285 286 286 286 286 287 287 287 288 288 288 289 289 289 289 289 289 290 289 289 289 289 288 288 288 288 288 288 288 288 288 288 288 288 287 287 286 286 285 285 284 282 279 276 271 266 263 262 265 267 266 266 270 274 275 275 276 278 281 281 280 279 276 275 274 273 271 269 267 264 263 262 261 261
284 284 284 284 285 285 285 286 286 287 287 288 288 289 289 289 289 290 290 290 290 290 291 291 291 291 291 290 290 289 289 289 288 287 287 288 288 288 289 289 289 289 289 288 287 285 285 285 285 284 281 279 276 273 270 267 265 264 267 274 277 274 273 276 279 279 278 279 280 282 281 279 277 275 273 271 270 268 266 265 265 264 263 262 261
286 286 286 287 287 287 288 288 289 289 289 290 290 291 291 291 292 292 292 292 292 291 291 291 291 291 290 290 289 289 289 289 288 288 288 289 289 289 289 289 289 289 287 285 283 282 282 281 280 278 275 273 273 274 275 277 278 278 279 280 279 276 276 278 279 278 278 279 280 279 277 275 273 272 271 270 268 267 266 265 264 263 262 261 260
287 288 288 289 289 289 290 290 290 291 291 292 292 292 293 293 293 293 293 293 292 292 292 292 291 291 290 290 290 290 290 290 290 290 290 290 289 289 288 287 286 284 282 280 279 279 278 276 274 273 271 271 274 279 281 282 282 281 279 277 275 274 274 277 277 276 275 276 276 275 273 270 269 268 268 267 266 266 265 263 262 261 260 260 261
289 290 290 291 291 291 292 292 292 293 293 294 294 294 294 294 294 294 293 293 292 292 292 292 292 291 291 291 292 291 291 290 291 291 291 289 288 287 286 283 280 277 276 276 277 278 277 276 274 273 271 271 274 278 280 279 278 278 276 274 274 274 274 274 273 272 271 272 271 269 266 265 264 264 263 261 260 259 259 258 258 259 260 261 262
292 292 293 293 293 294 294 294 294 295 295 295 295 295 295 294 294 294 293 293 292 292 293 293 293 293 293 293 292 291 290 290 290 289 288 285 283 283 281 279 275 272 273 276 278 279 279 277 276 275 275 276 277 278 278 277 275 274 273 272 272 272 272 271 269 268 267 266 265 262 260 259 259 258 258 257 257 257 257 258 259 261 262 264 266
294 295 295 296 296 296 296 296 296 296 296 296 296 295 295 295 295 294 294 294 294 294 295 295 295 295 294 292 291 290 289 288 286 284 283 282 281 280 280 280 278 276 277 278 280 280 279 278 277 278 279 279 279 278 276 274 273 272 271 270 270 270 270 269 267 265 264 261 259 256 255 254 255 255 256 258 259 260 262 263 265 266 268 270 272
297 297 297 298 298 298 298 297 297 297 297 297 296 296 296 296 296 295 295 295 295 296 297 297 296 295 293 291 291 290 287 282 280 281 284 283 281 281 285 287 286 283 282 281 281 280 280 280 280 280 280 279 277 276 274 272 271 270 269 269 268 268 268 266 264 262 260 258 256 256 256 257 257 258 260 261 262 264 266 268 270 272 274 276 278
299 299 299 299 299 299 298 298 298 297 297 297 296 296 296 296 296 295 295 295 296 297 298 298 296 295 292 291 290 288 283 278 278 284 288 287 285 286 289 291 289 287 285 284 282 281 281 280 280 279 278 276 275 273 271 270 269 269 269 269 270 270 269 267 265 264 262 261 261 262 263 264 264 265 266 267 269 271 273 275 277 278 279 280 281
300 300 300 300 300 300 299 299 298 298 297 297 296 296 296 295 295 294 295 296 298 299 299 297 295 293 292 290 287 285 281 279 281 285 287 287 287 288 288 288 287 287 286 285 283 281 280 279 278 276 275 274 272 271 271 270 270 270 271 272 272 272 271 269 268 267 266 266 266 267 268 269 270 272 273 275 276 277 278 279 280 281 281 282 283
301 301 301 301 301 300 300 299 299 298 297 297 297 296 295 294 294 294 295 297 298 298 298 296 294 292 291 288 284 280 278 278 280 281 281 282 284 286 287 287 286 285 284 283 282 280 279 277 276 274 272 271 271 271 272 273 272 272 272 272 271 270 268 267 267 267 267 268 270 272 273 275 276 277 278 278 279 279 280 281 281 282 283 283 284
302 302 301 301 301 300 300 299 298 298 297 297 296 295 294 294 294 294 294 294 295 295 294 293 291 291 290 287 283 278 276 276 277 278 279 281 282 285 287 287 286 284 283 281 280 278 276 275 274 273 272 271 271 271 271 271 271 270 270 269 269 268 268 268 268 270 271 272 274 277 278 279 280 280 281 281 281 281 281 282 282 282 283 283 283
301 301 301 301 300 300 300 300 299 299 298 297 296 295 293 293 293 292 291 291 291 293 293 291 289 288 287 285 282 279 277 276 276 277 278 280 282 284 286 285 283 281 280 278 277 275 274 272 271 271 270 270 270 269 269 269 269 269 269 269 269 270 271 272 274 275 276 278 279 280 281 281 282 282 282 282 282 282 282 282 282 283 283 283 283
300 300 300 300 300 300 300 301 301 300 299 298 297 296 293 292 291 290 289 288 289 292 293 292 291 289 286 283 281 279 278 278 278 278 278 279 280 282 283 282 279 276 275 273 272 272 271 270 269 269 270 270 270 270 270 271 271 271 271 272 273 274 275 276 278 279 279 280 280 281 281 281 281 282 282 282 282 282 282 283 283 283 283 283 283
Height
5805 5804 5803 5802 5802 5801 5800 5800 5799 5798 5797 5795 5794 5792 5791 5789 5787 5785 5783 5781 5779 5778 5776 5774 5772 5770 5768 5766 5764 5762 5760 5758 5756 5755 5754 5752 5751 5750 5748 5746 5745 5743 5741 5740 5739 5737 5736 5735 5733 5731 5728 5727 5725 5723 5721 5718 5715 5713 5710 5708 5706 5702 5699 5696 5694 5697 5697 5693 5690 5688 5685 5682 5680 5677 5675 5674 5672 5669 5666 5662 5659 5656 5653 5650 5647
5799 5798 5798 5797 5796 5795 5795 5794 5793 5792 5791 5790 5788 5787 5785 5783 5781 5779 5777 5775 5773 5771 5769 5767 5765 5763 5761 5759 5757 5756 5754 5752 5750 5748 5747 5746 5745 5743 5742 5741 5740 5738 5737 5735 5733 5732 5731 5730 5728 5725 5722 5721 5719 5716 5714 5711 5709 5707 5704 5701 5699 5696 5692 5689 5687 5687 5689 5687 5682 5680 5678 5675 5674 5672 5669 5668 5666 5662 5658 5655 5651 5648 5645 5642 5639
5793 5792 5792 5791 5790 5790 5789 5789 5788 5786 5785 5784 5782 5781 5779 5777 5775 5773 5770 5768 5766 5764 5762 5760 5758 5756 5755 5752 5750 5749 5747 5745 5743 5742 5741 5740 5738 5737 5735 5734 5733 5732 5731 5730 5728 5726 5724 5723 5721 5719 5716 5714 5713 5710 5707 5704 5701 5699 5697 5694 5691 5689 5685 5682 5680 5678 5679 5679 5676 5673 5670 5668 5666 5664 5662 5660 5657 5654 5651 5648 5643 5639 5637 5634 5631
5787 5786 5785 5784 5784 5784 5783 5782 5781 5780 5778 5777 5775 5773 5772 5769 5767 5766 5764 5761 5759 5757 5755 5753 5751 5749 5748 5745 5743 5741 5739 5738 5736 5735 5734 5733 5732 5730 5728 5727 5727 5726 5725 5724 5722 5720 5718 5717 5715 5712 5710 5708 5706 5703 5700 5697 5694 5692 5690 5687 5684 5681 5678 5675 5673 5671 5669 5670 5669 5665 5662 5660 5658 5656 5654 5651 5648 5645 5643 5640 5636 5632 5630 5627 5624
5780 5779 5778 5778 5777 5777 5776 5775 5774 5772 5771 5769 5767 5766 5764 5762 5760 5758 5757 5755 5752 5750 5748 5746 5744 5743 5740 5738 5736 5734 5732 5731 5729 5728 5727 5725 5724 5724 5723 5722 5720 5719 5719 5717 5716 5714 5712 5711 5709 5706 5703 5702 5700 5696 5693 5690 5687 5685 5682 5680 5677 5674 5671 5668 5665 5663 5661 5661 5660 5657 5654 5652 5649 5647 5646 5642 5639 5637 5635 5632 5629 5626 5624 5621 5618
5773 5772 5771 5770 5770 5769 5768 5767 5766 5765 5763 5761 5760 5758 5756 5755 5753 5751 5750 5748 5745 5743 5741 5739 5737 5736 5733 5731 5729 5727 5725 5724 5723 5721 5719 5718 5717 5717 5716 5715 5714 5713 5712 5711 5709 5707 5706 5704 5702 5699 5697 5695 5693 5689 5686 5683 5680 5678 5675 5672 5669 5666 5663 5660 5657 5654 5653 5652 5651 5648 5646 5644 5641 5639 5637 5634 5631 5629 5626 5623 5621 5619 5616 5613 5610
5765 5765 5764 5763 5762 5761 5760 5759 5758 5757 5755 5754 5752 5750 5749 5747 5745 5743 5742 5740 5738 5736 5734 5732 5730 5728 5726 5724 5722 5720 5719 5717 5715 5714 5712 5711 5711 5710 5709 5708 5707 5706 5705 5704 5702 5700 5699 5697 5694 5692 5690 5687 5685 5682 5679 5676 5673 5670 5667 5664 5661 5658 5655 5652 5649 5646 5644 5642 5641 5639 5637 5635 5633 5630 5628 5625 5622 5620 5617 5614 5612 5609 5606 5603 5601
5758 5757 5757 5756 5755 5754 5752 5751 5750 5748 5747 5746 5744 5743 5741 5740 5738 5736 5734 5732 5730 5728 5726 5724 5722 5721 5719 5717 5715 5713 5712 5710 5708 5707 5706 5705 5704 5703 5702 5701 5701 5700 5698 5697 5695 5693 5691 5689 5687 5684 5682 5679 5677 5674 5671 5668 5664 5662 5660 5656 5653 5650 5647 5644 5640 5637 5635 5633 5632 5630 5626 5625 5624 5621 5619 5616 5613 5611 5608 5604 5601 5599 5596 5593 5591
5749 5749 5748 5748 5747 5746 5745 5743 5742 5741 5739 5737 5736 5734 5733 5732 5730 5728 5726 5724 5723 5721 5719 5717 5715 5714 5712 5710 5709 5707 5705 5703 5701 5700 5699 5698 5697 5696 5695 5694 5694 5693 5691 5690 5688 5686 5683 5681 5679 5676 5674 5671 5668 5665 5663 5659 5656 5654 5651 5648 5645 5642 5639 5636 5632 5629 5626 5623 5622 5619 5616 5615 5614 5611 5609 5607 5604 5601 5598 5594 5592 5590 5586 5583 5580
5740 5739 5739 5739 5738 5737 5736 5735 5734 5732 5731 5729 5727 5725 5724 5723 5721 5719 5718 5716 5715 5714 5712 5710 5709 5708 5706 5704 5703 5701 5699 5697 5695 5693 5692 5690 5690 5689 5688 5687 5686 5685 5684 5682 5681 5678 5675 5673 5671 5668 5665 5663 5660 5657 5654 5650 5647 5645 5642 5639 5636 5633 5629 5626 5623 5620 5616 5613 5612 5609 5606 5605 5604 5600 5598 5597 5593 5590 5588 5585 5583 5581 5577 5574 5571
5731 5731 5730 5730 5729 5728 5727 5726 5724 5723 5721 5719 5718 5717 5715 5714 5713 5711 5710 5709 5708 5706 5705 5704 5702 5701 5700 5699 5696 5694 5692 5690 5688 5686 5684 5683 5682 5681 5681 5680 5678 5677 5675 5674 5672 5670 5667 5665 5663 5660 5657 5654 5651 5648 5645 5641 5638 5635 5633 5630 5626 5622 5619 5616 5613 5610 5605 5602 5601 5599 5596 5595 5594 5589 5587 5586 5583 5580 5578 5575 5573 5571 5567 5564 5562
5723 5722 5722 5721 5720 5719 5718 5716 5715 5713 5712 5710 5709 5708 5707 5706 5705 5704 5703 5702 5701 5700 5698 5697 5695 5694 5693 5692 5690 5688 5685 5682 5680 5679 5677 5675 5674 5673 5673 5672 5670 5669 5667 5665 5663 5661 5658 5656 5654 5651 5648 5645 5642 5638 5635 5632 5629 5625 5623 5620 5616 5612 5608 5604 5602 5599 5594 5590 5589 5588 5586 5584 5582 5579 5576 5574 5571 5569 5566 5564 5562 5560 5556 5555 5552
5715 5714 5713 5712 5711 5710 5708 5707 5705 5704 5703 5702 5700 5700 5699 5698 5697 5697 5696 5695 5694 5693 5691 5690 5688 5687 5686 5684 5683 5681 5678 5675 5673 5671 5669 5667 5665 5664 5664 5663 5661 5660 5658 5655 5654 5651 5649 5646 5644 5642 5638 5635 5632 5628 5625 5622 5619 5615 5612 5609 5606 5602 5597 5593 5590 5586 5582 5578 5576 5577 5576 5572 5569 5568 5566 5562 5559 5557 5554 5552 5551 5548 5545 5544 5543
5705 5705 5704 5703 5702 5701 5700 5699 5697 5696 5695 5694 5693 5692 5692 5691 5690 5689 5689 5688 5686 5685 5684 5683 5681 5679 5678 5677 5675 5673 5670 5667 5665 5662 5660 5658 5656 5654 5654 5653 5652 5651 5648 5646 5643 5641 5639 5636 5634 5632 5628 5624 5621 5617 5613 5610 5607 5604 5601 5598 5595 5592 5587 5583 5579 5574 5570 5566 5563 5564 5565 5559 5555 5554 5553 5550 5547 5545 5542 5541 5540 5536 5533 5532 5532
5696 5695 5694 5694 5693 5693 5692 5691 5689 5689 5688 5687 5686 5685 5684 5684 5682 5682 5681 5680 5679 5678 5676 5675 5673 5671 5669 5668 5667 5665 5662 5658 5656 5654 5651 5649 5647 5645 5644 5643 5642 5641 5639 5636 5633 5631 5628 5625 5623 5620 5616 5613 5609 5604 5601 5598 5595 5593 5591 5587 5585 5581 5577 5573 5568 5562 5558 5554 5551 5551 5551 5547 5541 5540 5539 5537 5535 5533 5531 5529 5528 5525 5521 5520 5520
5689 5687 5686 5685 5685 5684 5684 5683 5682 5681 5680 5679 5678 5677 5676 5676 5674 5673 5673 5671 5670 5669 5668 5666 5665 5663 5661 5659 5658 5657 5654 5650 5647 5645 5642 5639 5637 5636 5634 5632 5631 5630 5629 5626 5623 5620 5617 5613 5609 5607 5604 5601 5597 5593 5589 5585 5582 5581 5578 5576 5573 5570 5568 5563 5557 5552 5548 5543 5539 5538 5537 5534 5530 5527 5526 5524 5523 5522 5518 5516 5515 5513 5510 5509 5508
5681 5680 5678 5677 5676 5676 5675 5675 5673 5672 5671 5671 5670 5669 5668 5666 5665 5664 5664 5663 5661 5660 5658 5657 5655 5653 5652 5650 5648 5648 5646 5641 5637 5635 5632 5628 5626 5625 5622 5621 5619 5618 5617 5614 5611 5608 5604 5600 5597 5594 5593 5590 5586 5581 5577 5573 5569 5567 5565 5562 5561 5559 5557 5552 5546 5542 5537 5532 5529 5527 5524 5522 5519 5516 5514 5513 5513 5512 5507 5504 5504 5501 5498 5497 5496
5673 5672 5670 5669 5668 5667 5666 5666 5664 5663 5662 5661 5660 5659 5658 5656 5655 5654 5653 5652 5651 5649 5648 5647 5645 5643 5642 5640 5638 5637 5636 5632 5627 5624 5621 5617 5614 5612 5609 5607 5606 5604 5602 5601 5598 5595 5593 5590 5586 5583 5581 5579 5574 5569 5565 5559 5555 5553 5550 5547 5546 5545 5543 5538 5533 5530 5527 5522 5519 5516 5513 5511 5509 5505 5504 5503 5502 5500 5497 5495 5493 5489 5487 5486 5485
5666 5664 5662 5661 5659 5658 5657 5656 5655 5654 5652 5651 5650 5649 5647 5646 5644 5643 5641 5641 5640 5639 5636 5635 5634 5633 5630 5628 5627 5625 5623 5620 5615 5611 5608 5604 5600 5597 5595 5593 5592 5590 5588 5588 5587 5585 5582 5579 5576 5571 5568 5565 5561 5556 5551 5545 5540 5538 5535 5531 5530 5531 5528 5523 5519 5518 5515 5512 5509 5506 5503 5501 5498 5495 5494 5492 5490 5488 5486 5484 5482 5479 5477 5474 5472
5658 5656 5654 5652 5650 5648 5647 5646 5644 5643 5642 5641 5640 5638 5636 5634 5632 5631 5629 5628 5627 5627 5625 5623 5622 5622 5619 5616 5614 5612 5609 5606 5602 5597 5594 5591 5587 5583 5581 5579 5578 5576 5575 5575 5574 5572 5569 5565 5562 5557 5553 5550 5546 5541 5537 5531 5526 5524 5522 5518 5517 5517 5513 5509 5507 5505 5502 5500 5498 5495 5492 5490 5487 5485 5483 5481 5479 5478 5475 5473 5471 5470 5466 5463 5461
5650 5647 5645 5643 5641 5639 5637 5636 5634 5632 5630 5629 5629 5627 5625 5622 5621 5619 5618 5616 5615 5614 5613 5610 5609 5609 5608 5605 5602 5599 5596 5592 5589 5585 5581 5578 5574 5571 5569 5567 5565 5562 5562 5562 5561 5558 5555 5551 5548 5544 5539 5536 5533 5528 5525 5521 5515 5511 5509 5506 5504 5502 5499 5496 5494 5492 5489 5488 5486 5483 5481 5478 5476 5474 5473 5470 5468 5467 5464 5461 5460 5459 5456 5453 5452
5641 5639 5637 5635 5633 5630 5628 5626 5624 5622 5620 5618 5617 5617 5614 5611 5609 5608 5606 5605 5604 5602 5601 5598 5595 5596 5596 5593 5590 5587 5583 5579 5576 5573 5569 5566 5562 5559 5557 5555 5552 5548 5548 5550 5548 5544 5541 5539 5535 5532 5527 5524 5521 5517 5514 5511 5505 5501 5498 5494 5491 5488 5485 5482 5481 5479 5477 5475 5473 5471 5469 5467 5465 5463 5461 5458 5457 5455 5453 5450 5449 5447 5445 5443 5442
5631 5630 5628 5625 5623 5621 5619 5617 5614 5612 5610 5608 5606 5606 5604 5601 5599 5596 5593 5592 5591 5589 5587 5584 5581 5581 5582 5581 5578 5575 5571 5567 5564 5561 5558 5554 5551 5547 5544 5542 5539 5535 5533 5535 5535 5531 5528 5525 5523 5519 5516 5512 5509 5506 5503 5499 5495 5490 5486 5482 5478 5475 5472 5469 5468 5466 5465 5463 5461 5459 5458 5455 5452 5451 5448 5446 5445 5443 5441 5439 5437 5436 5435 5434 5433
5621 5619 5617 5615 5613 5611 5609 5606 5604 5601 5599 5597 5595 5594 5592 5589 5587 5585 5581 5578 5575 5574 5573 5570 5567 5566 5567 5567 5566 5564 5559 5556 5554 5551 5547 5543 5539 5536 5533 5530 5527 5523 5520 5520 5520 5518 5515 5513 5510 5507 5504 5500 5496 5492 5490 5487 5482 5477 5473 5470 5466 5462 5459 5457 5455 5453 5452 5450 5449 5447 5446 5443 5441 5439 5437 5435 5433 5431 5429 5428 5426 5425 5425 5424 5424
5609 5607 5604 5602 5600 5598 5596 5594 5591 5588 5586 5583 5582 5580 5578 5576 5574 5572 5568 5565 5561 5559 5558 5556 5554 5552 5551 5551 5551 5551 5549 5545 5543 5540 5536 5531 5527 5524 5521 5518 5515 5511 5507 5507 5506 5503 5501 5499 5497 5494 5491 5487 5482 5479 5476 5473 5468 5464 5460 5456 5453 5450 5447 5445 5443 5441 5439 5438 5436 5435 5434 5432 5429 5427 5426 5424 5422 5420 5419 5418 5416 5415 5415 5415 5415
5597 5595 5592 5590 5587 5585 5583 5582 5579 5576 5573 5570 5568 5566 5564 5562 5561 5560 5557 5553 5549 5546 5544 5543 5541 5539 5538 5536 5535 5536 5536 5534 5532 5528 5523 5518 5515 5512 5508 5505 5502 5498 5494 5492 5490 5488 5487 5485 5483 5480 5477 5472 5468 5464 5461 5458 5454 5450 5447 5443 5439 5437 5435 5433 5430 5429 5427 5426 5424 5423 5422 5420 5418 5416 5415 5413 5411 5410 5409 5407 5406 5405 5405 5405 5405
5586 5583 5581 5578 5576 5573 5571 5570 5568 5566 5563 5559 5557 5555 5552 5549 5547 5547 5545 5541 5536 5533 5531 5529 5528 5526 5523 5522 5522 5522 5522 5522 5520 5515 5510 5505 5502 5500 5496 5493 5489 5485 5481 5477 5474 5472 5471 5470 5468 5465 5461 5456 5453 5450 5447 5444 5441 5437 5435 5431 5427 5425 5423 5421 5419 5417 5416 5414 5412 5411 5410 5409 5407 5405 5404 5403 5401 5399 5398 5397 5396 5396 5395 5395 5395
5573 5571 5568 5566 5564 5561 5559 5557 5555 5554 5551 5548 5545 5543 5540 5537 5535 5534 5533 5528 5523 5521 5519 5517 5515 5513 5509 5508 5508 5507 5508 5509 5507 5500 5495 5492 5489 5486 5483 5480 5476 5472 5468 5463 5459 5457 5457 5456 5454 5450 5445 5441 5439 5436 5433 5430 5428 5425 5423 5420 5417 5414 5412 5410 5409 5407 5405 5403 5401 5400 5399 5398 5396 5395 5393 5392 5391 5390 5389 5388 5387 5387 5387 5386 5386
5561 5558 5556 5554 5551 5549 5547 5545 5542 5541 5539 5537 5535 5532 5529 5525 5522 5522 5523 5517 5509 5505 5505 5504 5503 5498 5494 5493 5493 5490 5491 5495 5493 5485 5480 5477 5474 5470 5468 5466 5462 5458 5454 5449 5444 5443 5443 5442 5439 5436 5431 5427 5425 5423 5420 5418 5416 5414 5411 5409 5406 5404 5402 5400 5398 5396 5394 5392 5390 5389 5388 5387 5386 5385 5384 5383 5382 5381 5380 5380 5379 5379 5378 5378 5378
5550 5547 5544 5542 5539 5537 5535 5533 5530 5528 5526 5524 5522 5521 5519 5516 5510 5507 5508 5508 5502 5494 5489 5488 5488 5484 5478 5478 5478 5474 5472 5475 5475 5470 5465 5461 5457 5453 5451 5448 5445 5441 5438 5433 5428 5428 5429 5427 5425 5422 5418 5414 5413 5411 5409 5407 5405 5403 5401 5399 5396 5394 5392 5390 5388 5386 5384 5382 5380 5379 5378 5376 5376 5375 5375 5374 5373 5372 5372 5372 5371 5371 5370 5370 5370
5539 5536 5533 5530 5528 5525 5523 5521 5518 5516 5513 5510 5507 5506 5506 5507 5504 5498 5492 5490 5490 5486 5479 5473 5470 5467 5463 5460 5460 5459 5456 5454 5453 5451 5448 5445 5440 5437 5434 5431 5428 5425 5421 5416 5413 5414 5414 5411 5409 5408 5404 5401 5400 5399 5397 5395 5393 5392 5390 5388 5386 5384 5382 5380 5378 5376 5374 5372 5370 5369 5368 5367 5366 5366 5366 5365 5364 5364 5364 5363 5363 5363 5363 5363 5363
5528 5526 5522 5519 5516 5513 5510 5508 5505 5503 5500 5497 5493 5490 5488 5489 5492 5492 5486 5477 5472 5471 5470 5464 5457 5451 5447 5443 5441 5441 5441 5438 5433 5431 5430 5428 5425 5421 5418 5415 5413 5410 5405 5400 5399 5399 5398 5395 5394 5394 5390 5388 5387 5386 5384 5383 5382 5380 5379 5377 5375 5374 5372 5370 5368 5366 5364 5363 5361 5360 5359 5358 5358 5357 5357 5357 5356 5356 5356 5355 5355 5355 5356 5356 5356
5515 5512 5510 5507 5504 5501 5498 5495 5492 5489 5485 5482 5479 5476 5472 5469 5469 5473 5475 5472 5463 5457 5454 5451 5445 5438 5433 5429 5425 5422 5422 5422 5419 5415 5412 5410 5408 5406 5403 5400 5399 5396 5391 5386 5385 5384 5383 5381 5380 5379 5376 5374 5374 5373 5371 5370 5369 5368 5366 5365 5364 5363 5361 5359 5357 5356 5355 5354 5352 5351 5351 5350 5350 5349 5349 5348 5349 5349 5349 5349 5348 5348 5348 5349 5349
5501 5498 5495 5493 5490 5488 5484 5481 5477 5474 5471 5467 5463 5460 5457 5454 5450 5448 5450 5453 5453 5449 5444 5438 5432 5425 5420 5416 5412 5407 5404 5404 5403 5401 5398 5395 5393 5390 5387 5386 5385 5382 5376 5373 5371 5370 5369 5367 5366 5364 5362 5361 5360 5359 5358 5357 5356 5355 5354 5353 5353 5352 5350 5348 5347 5346 5346 5345 5344 5344 5343 5343 5342 5342 5341 5341 5342 5342 5342 5342 5342 5341 5341 5342 5343
5488 5485 5481 5478 5475 5473 5470 5466 5462 5459 5456 5453 5450 5446 5442 5439 5436 5432 5429 5429 5429 5431 5431 5428 5422 5414 5408 5405 5401 5396 5391 5388 5388 5387 5384 5381 5378 5374 5371 5371 5370 5367 5362 5359 5357 5356 5355 5354 5352 5351 5349 5348 5348 5347 5346 5345 5344 5343 5342 5342 5342 5342 5341 5340 5340 5339 5338 5338 5337 5336 5336 5335 5335 5335 5335 5335 5335 5335 5335 5335 5335 5335 5336 5336 5336
5475 5471 5468 5464 5461 5458 5455 5451 5447 5444 5441 5438 5435 5432 5429 5425 5421 5418 5415 5412 5409 5408 5409 5410 5408 5402 5396 5392 5388 5383 5380 5377 5374 5372 5370 5367 5363 5360 5358 5357 5355 5352 5349 5347 5345 5343 5342 5341 5340 5339 5338 5337 5336 5336 5335 5334 5334 5333 5333 5333 5333 5333 5333 5333 5333 5332 5331 5331 5330 5329 5329 5329 5329 5329 5329 5329 5329 5329 5329 5329 5330 5330 5330 5330 5331
5461 5458 5454 5450 5447 5443 5440 5436 5432 5428 5425 5422 5419 5416 5414 5411 5406 5402 5399 5397 5394 5392 5390 5389 5388 5386 5383 5378 5372 5368 5366 5365 5362 5359 5356 5353 5350 5347 5345 5343 5341 5339 5337 5336 5333 5331 5330 5330 5329 5328 5327 5327 5326 5326 5325 5325 5325 5324 5325 5325 5326 5326 5326 5326 5325 5325 5324 5324 5323 5323 5323 5323 5323 5323 5323 5323 5323 5323 5323 5323 5324 5324 5324 5325 5325
5447 5443 5440 5436 5433 5429 5426 5422 5419 5414 5410 5407 5404 5400 5398 5395 5392 5388 5385 5382 5379 5377 5374 5372 5371 5368 5366 5364 5359 5354 5352 5352 5349 5346 5342 5339 5337 5334 5332 5330 5328 5327 5326 5325 5323 5321 5320 5320 5319 5319 5318 5318 5318 5317 5317 5317 5317 5317 5317 5318 5318 5318 5318 5318 5318 5318 5317 5317 5317 5317 5317 5316 5316 5316 5317 5317 5317 5317 5317 5317 5318 5319 5319 5320 5321
5433 5429 5425 5422 5419 5416 5412 5409 5405 5401 5397 5393 5389 5385 5382 5380 5377 5373 5370 5368 5365 5363 5360 5358 5356 5353 5350 5348 5345 5341 5339 5337 5335 5332 5330 5327 5325 5323 5321 5319 5317 5316 5315 5314 5313 5312 5311 5311 5311 5310 5310 5310 5310 5310 5310 5309 5309 5310 5310 5310 5310 5311 5311 5311 5311 5311 5311 5310 5310 5310 5310 5310 5310 5310 5310 5310 5311 5311 5312 5312 5313 5314 5314 5315 5316
5421 5417 5413 5409 5406 5402 5399 5395 5392 5388 5383 5379 5375 5372 5368 5365 5362 5359 5356 5354 5351 5349 5347 5344 5342 5340 5336 5333 5331 5328 5326 5323 5321 5320 5318 5316 5314 5312 5311 5309 5308 5307 5306 5305 5304 5304 5304 5304 5304 5304 5304 5303 5303 5303 5303 5303 5304 5304 5304 5304 5304 5304 5305 5305 5305 5305 5304 5304 5304 5304 5304 5304 5304 5304 5304 5305 5305 5306 5306 5307 5308 5309 5310 5310 5311
5408 5404 5400 5397 5393 5389 5385 5382 5378 5375 5371 5366 5363 5359 5356 5352 5349 5346 5343 5340 5337 5335 5334 5332 5329 5326 5323 5321 5318 5316 5313 5311 5309 5308 5307 5306 5304 5303 5302 5301 5300 5299 5298 5297 5297 5297 5297 5298 5298 5297 5297 5297 5297 5297 5297 5298 5298 5299 5299 5299 5299 5298 5299 5299 5299 5299 5299 5298 5298 5298 5298 5298 5299 5299 5299 5299 5300 5301 5301 5302 5303 5304 5305 5306 5306
5395 5392 5388 5384 5380 5376 5373 5369 5365 5362 5358 5354 5350 5346 5343 5341 5337 5333 5330 5327 5324 5322 5321 5319 5317 5314 5312 5310 5308 5305 5303 5301 5299 5298 5298 5297 5296 5295 5294 5293 5292 5292 5291 5291 5291 5291 5291 5292 5292 5291 5291 5292 5292 5292 5292 5292 5293 5293 5293 5293 5293 5293 5293 5293 5293 5293 5293 5293 5293 5293 5293 5294 5294 5295 5295 5295 5296 5297 5297 5298 5298 5299 5299 5300 5300
5383 5379 5375 5372 5368 5364 5360 5357 5353 5350 5346 5342 5339 5335 5331 5328 5325 5322 5319 5315 5312 5311 5309 5308 5306 5304 5302 5300 5298 5297 5295 5293 5292 5291 5290 5290 5289 5288 5287 5287 5286 5286 5286 5286 5286 5286 5286 5286 5286 5285 5286 5286 5286 5286 5287 5287 5287 5288 5288 5288 5288 5287 5287 5287 5287 5287 5288 5288 5288 5288 5289 5289 5290 5291 5291 5292 5292 5292 5293 5293 5293 5293 5293 5293 5293
5371 5367 5363 5359 5356 5352 5348 5344 5341 5338 5334 5331 5327 5323 5320 5317 5314 5311 5308 5305 5302 5300 5299 5298 5296 5295 5293 5291 5290 5289 5288 5287 5286 5285 5284 5283 5283 5283 5282 5282 5281 5281 5281 5281 5281 5280 5280 5280 5280 5280 5280 5280 5280 5281 5281 5281 5282 5282 5282 5282 5282 5282 5282 5282 5282 5282 5283 5283 5283 5283 5284 5284 5285 5286 5286 5286 5287 5287 5287 5287 5287 5287 5287 5287 5287
5360 5357 5353 5349 5345 5341 5337 5333 5329 5326 5323 5320 5316 5312 5309 5306 5304 5301 5299 5296 5294 5292 5290 5289 5288 5287 5285 5284 5283 5282 5281 5281 5280 5279 5278 5278 5278 5278 5277 5277 5277 5276 5276 5276 5275 5275 5275 5275 5275 5275 5275 5275 5275 5275 5276 5276 5276 5276 5276 5276 5277 5277 5277 5277 5277 5277 5277 5277 5278 5278 5279 5279 5279 5280 5280 5280 5280 5281 5281 5281 5280 5281 5280 5280 5280
5349 5346 5342 5338 5334 5330 5326 5323 5319 5316 5313 5310 5307 5304 5301 5298 5295 5293 5291 5289 5287 5285 5283 5282 5281 5280 5279 5278 5277 5276 5276 5275 5274 5274 5273 5273 5273 5273 5273 5272 5272 5271 5271 5271 5270 5270 5270 5270 5270 5270 5270 5270 5270 5270 5270 5270 5270 5270 5270 5271 5271 5271 5271 5271 5271 5272 5272 5272 5273 5273 5273 5274 5274 5274 5274 5274 5274 5274 5274 5274 5274 5274 5273 5273 5272
5339 5335 5331 5327 5324 5320 5317 5313 5310 5307 5304 5301 5299 5296 5293 5291 5288 5286 5283 5282 5280 5278 5277 5276 5275 5274 5274 5273 5272 5271 5271 5270 5270 5269 5269 5269 5269 5268 5268 5268 5267 5266 5266 5266 5265 5265 5265 5265 5265 5265 5265 5265 5265 5265 5265 5265 5265 5265 5265 5265 5265 5266 5266 5266 5266 5266 5267 5267 5267 5267 5267 5268 5268 5268 5268 5268 5268 5268 5268 5267 5267 5267 5266 5266 5265
5328 5325 5321 5318 5314 5311 5308 5305 5302 5298 5296 5293 5290 5288 5286 5284 5281 5279 5278 5276 5274 5273 5272 5270 5269 5269 5268 5267 5267 5266 5266 5265 5265 5265 5264 5264 5264 5263 5263 5262 5262 5261 5261 5261 5260 5260 5260 5260 5260 5260 5260 5260 5260 5260 5260 5260 5260 5260 5260 5260 5260 5260 5261 5261 5261 5261 5261 5261 5261 5261 5261 5261 5262 5262 5262 5261 5261 5261 5261 5260 5260 5259 5259 5258 5257
5319 5316 5312 5309 5306 5303 5300 5297 5294 5291 5289 5286 5283 5281 5279 5277 5275 5274 5272 5271 5270 5268 5267 5265 5264 5264 5263 5262 5262 5262 5261 5261 5260 5260 5259 5259 5259 5258 5258 5257 5256 5256 5256 5255 5255 5255 5255 5255 5255 5255 5255 5255 5255 5255 5255 5255 5255 5255 5255 5255 5255 5255 5255 5255 5255 5255 5255 5255 5255 5255 5255 5255 5255 5255 5255 5255 5254 5254 5254 5253 5253 5252 5252 5250 5249
5311 5308 5305 5301 5298 5296 5293 5290 5287 5284 5282 5279 5277 5275 5273 5271 5270 5269 5267 5266 5265 5263 5262 5260 5259 5259 5258 5257 5257 5256 5256 5256 5255 5254 5254 5254 5253 5252 5252 5251 5251 5251 5250 5250 5250 5250 5250 5250 5250 5250 5250 5250 5250 5250 5250 5250 5249 5249 5249 5249 5249 5249 5249 5249 5249 5249 5249 5249 5249 5249 5249 5249 5249 5249 5248 5248 5248 5247 5247 5246 5246 5245 5244 5243 5242
5303 5300 5297 5294 5291 5288 5286 5283 5280 5278 5275 5273 5271 5269 5268 5266 5265 5264 5262 5261 5260 5258 5257 5256 5255 5254 5253 5252 5252 5251 5251 5250 5250 5249 5249 5248 5247 5247 5246 5246 5246 5245 5245 5245 5245 5245 5245 5245 5245 5245 5245 5245 5244 5244 5244 5244 5244 5244 5244 5244 5244 5244 5244 5244 5244 5244 5243 5243 5243 5243 5243 5243 5242 5242 5241 5241 5240 5240 5239 5238 5237 5236 5235 5234 5233